TimeMDT,TemperatureF,Dew PointF,Humidity,Sea Level PressureIn,VisibilityMPH,Wind Direction,Wind SpeedMPH,Gust SpeedMPH,PrecipitationIn,Events,Conditions,WindDirDegrees,DateUTC
12:53 AM,66.9,55.9,68,30.02,10.0,Calm,Calm,-,N/A,,Clear,0,2013-07-30 06:53:00
1:53 AM,64.0,57.0,78,30.04,10.0,Calm,Calm,-,N/A,,Clear,0,2013-07-30 07:53:00
2:53 AM,64.0,57.0,78,30.04,10.0,NNE,5.8,-,N/A,,Clear,30,2013-07-30 08:53:00
3:53 AM,62.1,57.0,84,30.05,10.0,Calm,Calm,-,N/A,,Clear,0,2013-07-30 09:53:00
4:53 AM,63.0,55.0,75,30.06,10.0,Calm,Calm,-,N/A,,Clear,0,2013-07-30 10:53:00
5:53 AM,63.0,55.0,75,30.08,10.0,Calm,Calm,-,N/A,,Clear,0,2013-07-30 11:53:00
6:53 AM,61.0,55.9,83,30.11,10.0,SSE,4.6,-,N/A,,Clear,150,2013-07-30 12:53:00
7:53 AM,66.0,55.0,68,30.12,10.0,SE,6.9,-,N/A,,Clear,140,2013-07-30 13:53:00
8:53 AM,71.1,54.0,55,30.13,10.0,ESE,6.9,-,N/A,,Clear,120,2013-07-30 14:53:00
9:53 AM,73.9,53.1,48,30.14,10.0,ESE,5.8,-,N/A,,Clear,110,2013-07-30 15:53:00
10:53 AM,77.0,52.0,42,30.14,10.0,East,5.8,-,N/A,,Clear,80,2013-07-30 16:53:00
11:53 AM,81.0,51.1,35,30.12,10.0,Calm,Calm,-,N/A,,Clear,0,2013-07-30 17:53:00
12:53 PM,82.9,50.0,32,30.10,10.0,Calm,Calm,-,N/A,,Clear,0,2013-07-30 18:53:00
1:53 PM,84.9,48.9,29,30.07,10.0,East,3.5,-,N/A,,Clear,100,2013-07-30 19:53:00
2:53 PM,90.0,46.0,22,30.04,10.0,Variable,6.9,-,N/A,,Clear,0,2013-07-30 20:53:00
3:53 PM,91.9,33.1,12,30.01,10.0,Variable,5.8,-,N/A,,Clear,0,2013-07-30 21:53:00
4:53 PM,91.9,36.0,14,29.99,10.0,Variable,4.6,-,N/A,,Clear,0,2013-07-30 22:53:00
5:53 PM,91.0,39.0,16,29.99,10.0,SE,6.9,-,N/A,,Partly Cloudy,130,2013-07-30 23:53:00
6:53 PM,91.0,39.0,16,29.97,10.0,SE,8.1,-,N/A,,Clear,130,2013-07-31 00:53:00
7:53 PM,89.1,39.9,18,29.96,10.0,ESE,4.6,-,N/A,,Clear,120,2013-07-31 01:53:00
8:53 PM,82.9,45.0,26,29.97,10.0,East,3.5,-,N/A,,Clear,80,2013-07-31 02:53:00
9:53 PM,80.1,46.9,31,29.99,10.0,Calm,Calm,-,N/A,,Clear,0,2013-07-31 03:53:00
10:53 PM,73.9,52.0,46,30.00,10.0,Calm,Calm,-,N/A,,Clear,0,2013-07-31 04:53:00
11:53 PM,75.0,48.9,40,29.99,10.0,Calm,Calm,-,N/A,,Clear,0,2013-07-31 05:53:00